Location: Jaworzyna Śląska
(50.9128°N, 16.4318°E)
Time: 22:32:34
(UTC+01:00)

ISS - Pass Details

Date: 01 February 2019
Orbit: 403 x 411 km, 51.6° (Epoch: 23 February)

Event Time Altitude Azimuth Distance (km) Brightness Sun altitude
Rises 18:53:59 0° 280° (W) 2,339 1.5 -20.4°
Reaches altitude 10° 18:56:04 10° 281° (W) 1,478 0.1 -20.7°
Enters shadow 18:59:02 69° 287° (WNW) 444 -3.6 -21.1°
